Voltar ao catálogo

SL-14 DEB

AtivoPO
NORAD 19143·DEBRIS·🇷🇺 Russia

Lançado Oct 26, 1978 de Plesetsk Cosmodrome

Loading…

Próximas Passagens (próximas 24 horas)

TLE

AtualizadoSource: Space-Track

Época: Sep 14, 2026, 14:50 UTC

1 19143U 78100P   26257.61808433  .00002061  00000-0  83182-2 0  9992
2 19143  81.6952   7.5113 0324716 213.3087 158.5091 12.70492146769147

Acompanhe SL-14 DEB em tempo real com AllMySat

Download on the App Store